This demonstration page uses our WeatherBlox Daily Observations layout. Learn more.

Left ArrowRight Arrow

39.12711, -84.51439

Hourly Observations for July 8, 2018

Temp ( °F °C ) Dew Point ( °F °C ) Humidity (%) Winds ( mph kmh ) Pressure ( in mb ) Visibility ( mi km ) Precip ( " mm )
12:53 am 00:53 Clear 60 15.6 58 14.4 93 93 Calm 30.25 1025 10 16 0.00 0.00
1:53 am 01:53 Clear 60 15.6 58 14.4 93 93 NE 3 6 30.26 1025 10 16 0.00 0.00
2:53 am 02:53 Clear 60 15.6 58 14.4 93 93 Calm 30.25 1025 10 16 0.00 0.00
3:53 am 03:53 Clear 59 15 59 15 100 100 Calm 30.24 1024 10 16 0.00 0.00
4:53 am 04:53 Clear 58 14.4 58 14.4 100 100 Calm 30.25 1024 10 16 0.00 0.00
5:53 am 05:53 Clear 58 14.4 58 14.4 100 100 Calm 30.26 1025 10 16 0.00 0.00
6:53 am 06:53 Mostly Sunny 58 14.4 58 14.4 100 100 Calm 30.27 1025 10 16 0.00 0.00
7:53 am 07:53 Mostly Sunny 64 17.8 60 15.6 87 87 NNE 3 6 30.28 1026 10 16 0.00 0.00
8:53 am 08:53 Sunny 68 20 60 15.6 76 76 NNE 6 9 30.29 1026 10 16 0.00 0.00
9:53 am 09:53 Mostly Sunny 74 23.3 62 16.7 67 67 N 7 11 30.30 1026 10 16 0.00 0.00
10:53 am 10:53 Sunny 79 26.1 62 16.7 56 56 NNE 6 9 30.29 1026 10 16 0.00 0.00
11:53 am 11:53 Sunny 82 27.8 64 17.8 55 55 NNE 6 9 30.28 1025 10 16 0.00 0.00
12:53 pm 12:53 Sunny 84 28.9 66 18.9 55 55 N 3 6 30.27 1025 10 16 0.00 0.00
1:53 pm 13:53 Partly Cloudy 85 29.4 67 19.4 55 55 N 8 13 30.25 1024 10 16 0.00 0.00
2:53 pm 14:53 Partly Cloudy 87 30.6 66 18.9 50 50 VRB 3 6 30.24 1024 10 16 0.00 0.00
3:53 pm 15:53 Partly Cloudy 87 30.6 67 19.4 51 51 Calm 30.23 1024 10 16 0.00 0.00
4:53 pm 16:53 Partly Cloudy 88 31.1 66 18.9 48 48 VRB 3 6 30.22 1023 10 16 0.00 0.00
5:53 pm 17:53 Partly Cloudy 87 30.6 67 19.4 51 51 ESE 6 9 30.21 1023 10 16 0.00 0.00
6:53 pm 18:53 Partly Cloudy 86 30 67 19.4 53 53 VRB 5 7 30.20 1023 10 16 0.00 0.00
7:53 pm 19:53 Sunny 83 28.3 66 18.9 57 57 E 6 9 30.20 1023 10 16 0.00 0.00
8:53 pm 20:53 Mostly Sunny 78 25.6 70 21.1 76 76 E 3 6 30.21 1023 10 16 0.00 0.00
9:53 pm 21:53 Mostly Clear 74 23.3 69 20.6 85 85 Calm 30.21 1023 10 16 0.00 0.00
10:53 pm 22:53 Partly Cloudy 73 22.8 69 20.6 87 87 Calm 30.23 1024 10 16 0.00 0.00
11:53 pm 23:53 Mostly Cloudy 71 21.7 69 20.6 94 94 Calm 30.23 1024 10 16 0.00 0.00

Powered by AerisWeather